Regional Weather Roundup
Issued by NWS Glasgow, MT

Home | Current Version | Previous Version | Text Only | Print | Product List | Glossary On
Versions: 1 2 3 4 5 6 7 8 9 10 11 12 13 14 15 16 17 18 19 20 21 22 23 24 25 26 27 28 29 30 31 32 33 34 35 36 37 38 39 40 41 42 43 44 45 46 47 48 49 50
000
ASUS45 KGGW 310315
RWRGGW
HOURLY WEATHER ROUNDUP FOR NORTHEAST MONTANA
NATIONAL WEATHER SERVICE GLASGOW MONTANA
900 PM MDT WED JUL 30 2014

NOTE: "FAIR" INDICATES FEW OR NO CLOUDS BELOW 12,000 FEET WITH NO
SIGNIFICANT WEATHER AND/OR OBSTRUCTIONS TO VISISBILITY.

NORTHEAST MONTANA


CITY           SKY/WX    TMP DP  RH WIND       PRES   REMARKS
GLASGOW        CLEAR     78  45  30 SE10      30.05S
PLENTYWOOD       N/A     69  53  56 SE3         N/A
WOLF POINT     CLEAR     79  49  34 E7        30.07S
JORDAN           N/A     79  41  25 SE8       30.09R
WINNETT          N/A     83  32  16 SE5         N/A
SIDNEY         CLEAR     73  54  49 CALM      30.13R
GLENDIVE       CLEAR     75  50  41 E7        30.14R
MALTA            N/A     84  49  29 SE7         N/A

FORT PECK REPORTS


CITY           SKY/WX    TMP DP  RH WIND       PRES   REMARKS
FORT PECK        N/A     83  49  30 E6          N/A
THE PINES        N/A     83  48  29 S3          N/A

SOUTHEAST MONTANA


CITY           SKY/WX    TMP DP  RH WIND       PRES   REMARKS
BILLINGS       PTCLDY    82  37  20 E8        30.14S
MILES CITY     CLEAR     82  45  27 E3        30.11S
BAKER          CLEAR     69  51  52 E5        30.17R
LIVINGSTON     MOCLDY    74  36  25 SE6       30.17R

CENTRAL MONTANA


CITY           SKY/WX    TMP DP  RH WIND       PRES   REMARKS
HAVRE          CLOUDY    83  45  26 E9        30.01S
LEWISTOWN      PTCLDY    74  40  29 E6        30.15S
GREAT FALLS    CLOUDY    80  40  23 SW14      30.10R
CUT BANK       MOCLDY    74  45  35 NW10      30.12R
HELENA         CLOUDY    81  44  27 N12       30.14R
BUTTE          CLOUDY    70  41  34 VRB6G24   30.30R
BOZEMAN        MOCLDY    74  45  35 E7        30.20R

WESTERN MONTANA


CITY           SKY/WX    TMP DP  RH WIND       PRES   REMARKS
MISSOULA       PTCLDY    82  43  25 CALM      30.08R
KALISPELL      NOT AVBL

NORTH DAKOTA


CITY           SKY/WX    TMP DP  RH WIND       PRES   REMARKS
WILLISTON      CLEAR     73  53  49 E6        30.12S
DICKINSON      CLEAR     68  54  60 E7        30.13S
MINOT          CLEAR     66  56  70 N3        30.10S
BISMARCK       PTCLDY    71  57  61 NE6       30.10S

SOUTHERN SASKATCHEWAN


CITY           SKY/WX    TMP DP  RH WIND       PRES   REMARKS
REGINA         MOCLDY    72  59  64 SE12      30.08S
ESTEVAN        MOCLDY    66  61  82 E2        30.12F
SWIFT CURRENT  CLEAR     72  45  37 SW12      30.03S



USA.gov is the U.S. government's official web portal to all federal, state and local government web resources and services.